Location: Aslanbucak
(36.5991°N, 30.5513°E)
Time: 08:36:22
(UTC+00:00)

Daily predictions for brighter satellites

Satellite Brightness Start Highest point End
(mag) Time Altitude Azimuth Time Altitude Azimuth Time Altitude Azimuth
Cosmos 1697 Rocket 3.4 15:24:03 10° SSE 15:28:55 32° ESE 15:33:49 10° NE
H-2A R/B 3.7 15:27:53 10° N 15:31:39 35° WNW 15:35:23 10° SW
Cosmos 1300 2.8 15:29:00 10° S 15:32:47 81° W 15:36:37 10° N
COSMO-SKYMED 1 3.2 15:29:32 10° NNE 15:33:31 35° E 15:37:30 10° SSE
Cosmos 1400 Rocket 2.9 15:29:43 10° S 15:33:46 60° E 15:37:48 10° NNE
Radarsat Rocket 4.5 15:29:24 10° S 15:35:31 68° WSW 15:41:19 10° NNW
SAR-Lupe-4 3.7 15:34:31 10° NNE 15:38:00 50° E 15:41:29 10° S
Atlas Centaur 2 3.6 15:31:20 10° WSW 15:39:03 52° S 15:47:16 10° E
Cosmos 1825 Rocket 4.0 15:35:44 10° NNW 15:40:09 70° W 15:44:30 10° S
Helios 1A Rocket 4.2 15:37:06 10° ESE 15:40:09 20° ENE 15:43:12 10° NNE
Meteor 2-21 Rocket 4.5 15:34:48 10° N 15:40:59 84° E 15:47:05 10° S
YAOGAN 1 4.1 15:39:05 10° ESE 15:41:40 16° ENE 15:44:16 10° NNE
NOAA 11 4.2 15:36:22 10° SSE 15:41:42 60° ENE 15:47:02 10° N
CZ-4B R/B 1.6 15:39:58 10° N 15:43:06 67° WNW 15:46:09 10° SSW
ERS-2 2.8 15:41:56 10° N 15:45:31 57° WNW 15:49:04 10° SSW
GPS 2-04 Rocket1 3.5 15:43:01 10° SW 15:46:48 41° SSE 15:50:13 13° E
Okean O Rocket 2.2 15:43:42 10° S 15:48:00 60° W 15:52:19 10° NNW
CZ-2D R/B 4.2 15:45:50 10° SE 15:49:02 26° ENE 15:52:14 10° NNE
Cosmos 1726 Rocket 4.4 15:45:32 10° SSW 15:49:46 54° W 15:54:04 10° N
CORIOLIS 4.4 15:45:44 10° S 15:51:03 75° WSW 15:56:26 10° NNW
CZ-4 R/B 2.5 15:48:16 10° ESE 15:51:10 21° ENE 15:54:04 10° NNE
Aureole 3 2.7 15:48:26 10° S 15:51:40 82° W 15:54:39 10° N
Cosmos 1980 Rocket 3.1 15:48:01 10° SSE 15:52:33 26° ESE 15:57:05 10° NE
Cosmos 1340 2.7 15:51:06 10° N 15:54:49 56° E 15:58:31 10° SSE
SAR-Lupe-1 4.0 15:52:16 10° NNE 15:55:51 85° ESE 15:59:22 10° SSW
Cosmos 1992 Rocket 4.1 15:51:01 10° S 15:56:04 55° ESE 16:01:09 10° NNE
SKYMED 3 4.5 15:53:17 10° NNE 15:57:37 70° ESE 16:01:56 10° S
Timation 2 Rocket 4.3 15:51:11 10° NNW 15:57:54 86° WSW 16:04:46 10° SSE
Cosmos 2297 Rocket 2.2 15:53:44 10° NNW 15:59:22 63° ENE 16:04:57 10° SSE
CZ-2C R/B 4.0 15:54:45 10° SE 15:59:44 31° ENE 16:04:38 10° N
In-Cosmos 22 Rocket 4.1 15:55:56 10° N 16:01:18 63° E 16:06:45 10° SSE
Cosmos 1346 Rocket 3.5 15:58:18 10° NNE 16:01:53 31° ENE 16:05:26 10° SE
Cosmos 2058 3.6 15:58:20 10° NNE 16:02:00 31° ENE 16:05:39 10° SE
Cosmos 1553 Rocket 4.0 15:55:51 10° S 16:02:12 75° E 16:08:28 10° N
ASTRO E2 3.6 15:59:30 10° WSW 16:03:12 38° S 16:05:54 16° ESE
PSLV R/B 3.8 16:02:16 10° NNE 16:06:25 71° E 16:10:30 10° S
Meteor 2-15 4.4 16:00:26 10° S 16:06:29 64° E 16:12:32 10° NNE
Cosmos 1315 Rocket 3.0 16:03:42 10° SSE 16:07:29 46° E 16:11:19 10° NNE
Meteor 2-10 Rocket 3.5 16:06:23 10° S 16:11:42 69° E 16:16:49 10° NNE
Cosmos 220 Rocket 4.0 16:07:55 10° SSW 16:12:15 87° WNW 16:16:41 10° NNE
Cosmos 2360 4.2 16:09:44 10° S 16:15:22 63° ESE 16:21:02 10° NNE
Geosat 4.3 16:12:41 12° NE 16:17:04 42° ESE 16:21:48 10° S
SeaSat 1 4.4 16:20:50 12° NE 16:20:50 12° NE 16:21:54 10° NNE
Cosmos 1455 2.0 16:16:25 10° S 16:20:08 66° E 16:23:55 10° NNE
H-2A R/B 2.8 16:15:57 10° SE 16:20:40 32° ENE 16:25:26 10° N
NOSS 3-3 (A) 4.0 16:15:32 10° SW 16:21:11 73° NW 16:27:32 10° NNE
NOSS 3-3 (C) 4.0 16:15:38 10° SW 16:21:19 74° NW 16:27:38 10° NNE
USA 305 4.1 16:17:54 10° NNW 16:21:25 24° NNE 16:22:01 23° NE
SKYMED 2 4.1 16:17:21 10° N 16:21:38 60° WNW 16:25:54 10° SSW
Aureole 3 Rocket 4.4 16:18:23 10° SSW 16:22:02 42° WNW 16:26:56 10° N
Okean-O 2.6 16:20:42 10° SSE 16:25:03 61° ENE 16:29:26 10° N
Cosmos 2278 3.8 16:20:15 10° S 16:25:45 54° ESE 16:30:46 13° NNE
SL-08 R/B 4.5 16:21:36 10° N 16:27:46 85° W 16:33:50 10° S
USA 306 4.0 16:24:20 10° NNW 16:27:59 26° NNE 16:28:15 26° NE
Milstar 3 3.5 16:25:29 10° WSW 16:32:11 44° S 16:36:12 22° ESE
MOS 1 Rocket 3.5 16:27:30 10° NNE 16:32:14 53° E 16:37:13 10° S
Cosmos 2219 3.7 16:27:07 10° NNW 16:32:49 63° WSW 16:38:27 10° S
Cosmos 1745 Rocket 3.9 16:27:53 10° N 16:34:13 77° E 16:40:33 10° S
ARGOS 3.8 16:35:49 32° ENE 16:35:49 32° ENE 16:40:24 10° N
Cosmos 44 Rocket 3.3 16:33:01 10° SSW 16:37:44 78° WNW 16:41:12 19° NNE
ATLAS 2AS CENTAUR R/B 4.0 16:32:35 10° N 16:38:03 21° NE 16:38:50 21° NE
Cosmos 2082 3.7 16:34:29 10° NNW 16:40:11 61° ENE 16:43:52 22° SE
Cosmos 1386 Rocket 4.4 16:36:44 10° N 16:43:10 85° E 16:49:27 10° S
Cosmos 968 Rocket 3.8 16:42:10 10° NNW 16:47:19 66° WSW 16:52:24 10° S
Cosmos 1408 2.8 16:43:48 10° NNW 16:47:27 69° W 16:51:06 10° S
Cosmos 967 Rocket 4.5 16:43:07 10° SSW 16:49:24 59° ESE 16:51:58 35° NE
Cosmos 2369 4.3 16:44:36 10° SW 16:50:13 59° WNW 16:55:51 10° NNE
CSL-04 Rocket 3.6 16:52:35 18° SSE 16:56:48 68° ENE 17:02:17 10° N
Cosmos 1076 Rocket 3.6 16:55:11 10° N 16:59:26 73° W 17:03:39 10° S
Cosmos 1709 Rocket 3.9 16:57:21 10° N 17:03:45 74° E 17:10:06 10° SSE
Cosmos 2227 Rocket 3.3 16:58:25 10° NW 17:03:45 44° WSW 17:09:04 10° S
CZ-4C R/B 4.4 17:00:33 10° N 17:04:27 18° NNE 17:04:27 18° NNE
Cosmos 2263 Rocket 3.9 17:01:23 10° N 17:03:25 19° NNE 17:03:25 19° NNE
OAO 2 Rocket 3.3 17:06:23 10° W 17:11:10 71° SSW 17:11:10 71° SSW
USA 307 4.2 17:07:42 10° NW 17:10:17 33° NNW 17:10:17 33° NNW
Cosmos 1697 Rocket 4.3 17:07:50 10° WSW 17:12:46 32° WNW 17:17:47 10° N
OAO 1 Rocket 4.4 17:09:41 10° W 17:14:58 72° SSW 17:14:58 72° SSW
USA 308 4.3 17:12:39 10° NW 17:15:03 31° NNW 17:15:03 31° NNW
YAOGAN 1 3.8 17:13:20 10° S 17:17:24 40° W 17:21:29 10° NNW
Cosmos 1825 4.0 17:15:32 10° NNW 17:17:29 26° NW 17:17:29 26° NW
Cosmos 2315 Rocket 4.1 17:16:35 10° SSW 17:22:44 71° W 17:28:56 10° N
CZ-4 R/B 3.6 17:22:55 10° SSW 17:26:04 23° W 17:29:11 10° NW
GPS 2-04 Rocket1 4.4 17:22:04 10° W 17:24:25 33° WSW 17:24:25 33° WSW
BREEZE-M TANK 4.1 17:22:05 10° WNW 17:24:59 30° NNW 17:24:59 30° NNW
Atlas Centaur 2 3.3 17:20:25 10° W 17:28:38 56° S 17:30:04 50° SSE
Cosmos 1980 Rocket 3.4 17:31:05 10° SW 17:36:17 39° WNW 17:39:22 22° N
H-2A R/B 3.8 17:56:31 16° SSW 17:59:58 30° W 18:04:43 10° NW
NOSS 3-4 (A) 4.5 18:00:45 10° NNW 18:05:39 49° NNW 18:05:39 49° NNW
NOSS 3-4 (C) 4.5 18:00:52 10° NNW 18:05:43 48° NNW 18:05:43 48° NNW
ATLAS 2AS CENTAUR R/B 4.1 18:22:42 10° NNW 18:26:17 31° NNW 18:26:17 31° NNW
